Time,TemperatureF,DewpointF,PressureIn,WindDirection,WindDirectionDegrees,WindSpeedMPH,WindSpeedGustMPH,Humidity,HourlyPrecipIn,Conditions,Clouds,dailyrainin,SoftwareType,DateUTC
2013-01-10 00:00:00,47.7,44.9,30.36,NNE,14,0.0,3.0,90,0.00,,---,0.00,VWS V14.01,2013-01-10 05:00:00,
2013-01-10 00:02:00,47.6,44.8,30.36,NNE,14,0.0,3.0,90,0.00,,---,0.00,VWS V14.01,2013-01-10 05:02:00,
2013-01-10 00:06:00,47.6,45.1,30.36,NNE,14,0.0,3.0,91,0.00,,---,0.00,VWS V14.01,2013-01-10 05:06:00,
2013-01-10 00:08:00,47.6,45.1,30.36,NNE,14,0.0,3.0,91,0.00,,---,0.00,VWS V14.01,2013-01-10 05:08:00,
2013-01-10 00:14:00,47.9,45.7,30.36,NNE,14,1.0,2.0,92,0.00,,---,0.00,VWS V14.01,2013-01-10 05:14:00,
2013-01-10 00:20:00,48.0,46.1,30.36,NNE,13,0.0,2.0,93,0.00,,---,0.00,VWS V14.01,2013-01-10 05:20:00,
2013-01-10 00:26:00,48.2,46.3,30.36,NNE,13,0.0,0.0,93,0.00,,---,0.00,VWS V14.01,2013-01-10 05:26:00,
2013-01-10 00:32:00,48.2,46.3,30.36,NNE,13,0.0,0.0,93,0.00,,---,0.00,VWS V14.01,2013-01-10 05:32:00,
2013-01-10 00:38:00,48.0,46.1,30.37,NNE,13,0.0,0.0,93,0.00,,---,0.00,VWS V14.01,2013-01-10 05:38:00,
2013-01-10 00:44:00,48.2,46.6,30.37,NNE,13,0.0,0.0,94,0.00,,---,0.00,VWS V14.01,2013-01-10 05:44:00,
2013-01-10 00:50:00,48.2,46.6,30.37,NNE,13,0.0,0.0,94,0.00,,---,0.00,VWS V14.01,2013-01-10 05:50:00,
2013-01-10 00:57:00,48.2,46.3,30.37,NNE,13,0.0,0.0,93,0.00,,---,0.00,VWS V14.01,2013-01-10 05:57:00,
2013-01-10 01:03:00,48.2,46.3,30.37,NNE,13,0.0,0.0,93,0.00,,---,0.00,VWS V14.01,2013-01-10 06:03:00,
2013-01-10 01:08:00,48.2,46.3,30.38,NNE,14,0.0,1.0,93,0.00,,---,0.00,VWS V14.01,2013-01-10 06:08:00,
2013-01-10 01:15:00,48.0,46.1,30.38,NNE,14,0.0,1.0,93,0.00,,---,0.00,VWS V14.01,2013-01-10 06:15:00,
2013-01-10 01:21:00,47.9,46.0,30.38,NNE,14,0.0,1.0,93,0.00,,---,0.00,VWS V14.01,2013-01-10 06:21:00,
2013-01-10 01:27:00,47.6,45.4,30.38,NNE,14,0.0,0.0,92,0.00,,---,0.00,VWS V14.01,2013-01-10 06:27:00,
2013-01-10 01:33:00,47.4,45.5,30.38,NNE,13,0.0,1.0,93,0.00,,---,0.00,VWS V14.01,2013-01-10 06:33:00,
2013-01-10 01:38:00,47.6,46.0,30.38,NNE,13,0.0,1.0,94,0.00,,---,0.00,VWS V14.01,2013-01-10 06:38:00,
2013-01-10 01:45:00,47.7,46.1,30.38,NNE,13,0.0,0.0,94,0.00,,---,0.00,VWS V14.01,2013-01-10 06:45:00,
2013-01-10 01:51:00,47.9,46.3,30.38,NNE,13,0.0,2.0,94,0.00,,---,0.00,VWS V14.01,2013-01-10 06:51:00,
2013-01-10 01:57:00,48.2,46.8,30.38,NNE,13,1.0,1.0,95,0.00,,---,0.00,VWS V14.01,2013-01-10 06:57:00,
2013-01-10 02:03:00,48.2,46.6,30.38,NNE,14,0.0,2.0,94,0.00,,---,0.00,VWS V14.01,2013-01-10 07:03:00,
2013-01-10 02:08:00,47.6,45.4,30.38,NNE,14,0.0,2.0,92,0.00,,---,0.00,VWS V14.01,2013-01-10 07:08:00,
2013-01-10 02:15:00,46.5,44.0,30.38,NNE,14,0.0,0.0,91,0.00,,---,0.00,VWS V14.01,2013-01-10 07:15:00,
2013-01-10 02:21:00,46.1,43.9,30.38,NNE,14,0.0,0.0,92,0.00,,---,0.00,VWS V14.01,2013-01-10 07:21:00,
2013-01-10 02:27:00,45.8,43.9,30.38,NNE,14,0.0,0.0,93,0.00,,---,0.00,VWS V14.01,2013-01-10 07:27:00,
2013-01-10 02:33:00,45.7,43.8,30.38,NNE,14,0.0,0.0,93,0.00,,---,0.00,VWS V14.01,2013-01-10 07:33:00,
2013-01-10 02:38:00,45.7,44.1,30.38,NNE,14,0.0,0.0,94,0.00,,---,0.00,VWS V14.01,2013-01-10 07:38:00,
2013-01-10 02:45:00,45.7,44.3,30.38,NNE,14,0.0,0.0,95,0.00,,---,0.00,VWS V14.01,2013-01-10 07:45:00,
2013-01-10 02:51:00,45.7,44.3,30.38,NNE,21,2.0,2.0,95,0.00,,---,0.00,VWS V14.01,2013-01-10 07:51:00,
2013-01-10 02:57:00,45.2,43.6,30.38,NNE,20,0.0,0.0,94,0.00,,---,0.00,VWS V14.01,2013-01-10 07:57:00,
2013-01-10 03:03:00,45.1,43.5,30.38,NNE,21,0.0,0.0,94,0.00,,---,0.00,VWS V14.01,2013-01-10 08:03:00,
2013-01-10 03:08:00,45.2,43.9,30.38,NNE,20,0.0,0.0,95,0.00,,---,0.00,VWS V14.01,2013-01-10 08:08:00,
2013-01-10 03:13:00,45.2,44.1,30.38,NNE,20,0.0,0.0,96,0.00,,---,0.00,VWS V14.01,2013-01-10 08:13:00,
2013-01-10 03:19:00,44.8,43.5,30.38,NNE,20,0.0,0.0,95,0.00,,---,0.00,VWS V14.01,2013-01-10 08:19:00,
2013-01-10 03:25:00,44.3,43.0,30.39,NNE,20,0.0,0.0,95,0.00,,---,0.00,VWS V14.01,2013-01-10 08:25:00,
2013-01-10 03:31:00,44.2,43.1,30.39,NNE,20,0.0,0.0,96,0.00,,---,0.00,VWS V14.01,2013-01-10 08:31:00,
2013-01-10 03:37:00,44.5,43.7,30.39,NNE,20,0.0,0.0,97,0.00,,---,0.00,VWS V14.01,2013-01-10 08:37:00,
2013-01-10 03:43:00,44.6,43.8,30.39,NNE,20,0.0,0.0,97,0.00,,---,0.00,VWS V14.01,2013-01-10 08:43:00,
2013-01-10 03:49:00,44.9,44.1,30.39,NNE,20,0.0,0.0,97,0.00,,---,0.00,VWS V14.01,2013-01-10 08:49:00,
2013-01-10 03:55:00,45.1,44.3,30.39,NNE,20,0.0,0.0,97,0.00,,---,0.00,VWS V14.01,2013-01-10 08:55:00,
2013-01-10 04:01:00,45.2,44.7,30.39,NNE,20,0.0,0.0,98,0.00,,---,0.00,VWS V14.01,2013-01-10 09:01:00,
2013-01-10 04:07:00,45.4,44.9,30.38,NNE,20,0.0,0.0,98,0.00,,---,0.00,VWS V14.01,2013-01-10 09:07:00,
2013-01-10 04:13:00,45.8,45.5,30.38,NNE,20,0.0,0.0,99,0.00,,---,0.00,VWS V14.01,2013-01-10 09:13:00,
2013-01-10 04:19:00,45.8,45.3,30.38,NNE,20,0.0,0.0,98,0.00,,---,0.00,VWS V14.01,2013-01-10 09:19:00,
2013-01-10 04:25:00,45.7,45.2,30.38,NNE,19,0.0,2.0,98,0.00,,---,0.00,VWS V14.01,2013-01-10 09:25:00,
2013-01-10 04:31:00,45.5,44.7,30.38,North,351,0.0,2.0,97,0.00,,---,0.00,VWS V14.01,2013-01-10 09:31:00,
2013-01-10 04:37:00,45.1,44.0,30.39,North,351,0.0,2.0,96,0.00,,---,0.00,VWS V14.01,2013-01-10 09:37:00,
2013-01-10 04:43:00,44.9,44.1,30.39,North,351,0.0,1.0,97,0.00,,---,0.00,VWS V14.01,2013-01-10 09:43:00,
2013-01-10 04:49:00,45.1,44.0,30.39,North,351,0.0,1.0,96,0.00,,---,0.00,VWS V14.01,2013-01-10 09:49:00,
2013-01-10 04:55:00,45.1,43.2,30.39,North,351,0.0,0.0,93,0.00,,---,0.00,VWS V14.01,2013-01-10 09:55:00,
2013-01-10 05:01:00,45.1,42.6,30.39,North,351,0.0,0.0,91,0.00,,---,0.00,VWS V14.01,2013-01-10 10:01:00,
2013-01-10 05:07:00,45.2,40.3,30.39,North,351,0.0,0.0,83,0.00,,---,0.00,VWS V14.01,2013-01-10 10:07:00,
2013-01-10 05:13:00,45.5,40.7,30.39,North,351,0.0,0.0,83,0.00,,---,0.00,VWS V14.01,2013-01-10 10:13:00,
2013-01-10 05:19:00,45.7,39.6,30.39,North,3,0.0,3.0,79,0.00,,---,0.00,VWS V14.01,2013-01-10 10:19:00,
2013-01-10 05:26:00,45.5,39.7,30.38,NNW,343,1.0,4.0,80,0.00,,---,0.00,VWS V14.01,2013-01-10 10:26:00,
2013-01-10 05:32:00,45.4,39.3,30.38,NNW,346,0.0,4.0,79,0.00,,---,0.00,VWS V14.01,2013-01-10 10:32:00,
2013-01-10 05:38:00,45.1,39.3,30.39,NE,47,0.0,4.0,80,0.00,,---,0.00,VWS V14.01,2013-01-10 10:38:00,
2013-01-10 05:44:00,44.6,39.1,30.39,North,358,0.0,3.0,81,0.00,,---,0.00,VWS V14.01,2013-01-10 10:44:00,
2013-01-10 05:50:00,44.3,38.5,30.39,NNW,345,0.0,3.0,80,0.00,,---,0.00,VWS V14.01,2013-01-10 10:50:00,
2013-01-10 05:56:00,44.1,39.0,30.40,NNW,345,0.0,0.0,82,0.00,,---,0.00,VWS V14.01,2013-01-10 10:56:00,
2013-01-10 06:02:00,43.8,38.4,30.40,NNW,345,0.0,0.0,81,0.00,,---,0.00,VWS V14.01,2013-01-10 11:02:00,
2013-01-10 06:08:00,43.6,37.8,30.41,NNW,345,0.0,0.0,80,0.00,,---,0.00,VWS V14.01,2013-01-10 11:08:00,
2013-01-10 06:14:00,43.6,37.5,30.41,NNW,345,0.0,4.0,79,0.00,,---,0.00,VWS V14.01,2013-01-10 11:14:00,
2013-01-10 06:20:00,44.1,36.7,30.41,NNW,340,0.0,4.0,75,0.00,,---,0.00,VWS V14.01,2013-01-10 11:20:00,
2013-01-10 06:26:00,44.3,36.2,30.42,North,4,1.0,4.0,73,0.00,,---,0.00,VWS V14.01,2013-01-10 11:26:00,
2013-01-10 06:32:00,44.9,35.4,30.42,North,354,0.0,4.0,69,0.00,,---,0.00,VWS V14.01,2013-01-10 11:32:00,
2013-01-10 06:38:00,45.2,36.4,30.43,NNW,340,0.0,4.0,71,0.00,,---,0.00,VWS V14.01,2013-01-10 11:38:00,
2013-01-10 06:44:00,45.1,35.9,30.43,NNW,340,0.0,0.0,70,0.00,,---,0.00,VWS V14.01,2013-01-10 11:44:00,
2013-01-10 06:50:00,45.1,35.5,30.43,NNW,340,0.0,1.0,69,0.00,,---,0.00,VWS V14.01,2013-01-10 11:50:00,
2013-01-10 06:56:00,45.2,34.2,30.43,NNW,340,0.0,0.0,65,0.00,,---,0.00,VWS V14.01,2013-01-10 11:56:00,
2013-01-10 07:02:00,45.8,33.5,30.43,NNW,340,0.0,2.0,62,0.00,,---,0.00,VWS V14.01,2013-01-10 12:02:00,
2013-01-10 07:08:00,46.2,33.5,30.44,NNW,340,0.0,2.0,61,0.00,,---,0.00,VWS V14.01,2013-01-10 12:08:00,
2013-01-10 07:14:00,46.5,33.4,30.44,NNW,340,0.0,1.0,60,0.00,,---,0.00,VWS V14.01,2013-01-10 12:14:00,
2013-01-10 07:20:00,46.7,34.4,30.44,NNW,340,1.0,2.0,62,0.00,,---,0.00,VWS V14.01,2013-01-10 12:20:00,
2013-01-10 07:26:00,46.4,34.5,30.44,NNW,340,2.0,3.0,63,0.00,,---,0.00,VWS V14.01,2013-01-10 12:26:00,
2013-01-10 07:32:00,46.1,33.8,30.44,NW,304,0.0,3.0,62,0.00,,---,0.00,VWS V14.01,2013-01-10 12:32:00,
2013-01-10 07:38:00,46.4,33.3,30.45,North,356,0.0,3.0,60,0.00,,---,0.00,VWS V14.01,2013-01-10 12:38:00,
2013-01-10 07:44:00,46.7,34.0,30.45,NNW,332,0.0,4.0,61,0.00,,---,0.00,VWS V14.01,2013-01-10 12:44:00,
2013-01-10 07:50:00,46.7,33.2,30.45,NNW,332,0.0,4.0,59,0.00,,---,0.00,VWS V14.01,2013-01-10 12:50:00,
2013-01-10 07:56:00,46.8,32.8,30.45,NNW,332,0.0,1.0,58,0.00,,---,0.00,VWS V14.01,2013-01-10 12:56:00,
2013-01-10 08:02:00,47.1,32.7,30.45,NNW,332,0.0,1.0,57,0.00,,---,0.00,VWS V14.01,2013-01-10 13:02:00,
2013-01-10 08:08:00,47.4,32.5,30.46,NNW,332,0.0,2.0,56,0.00,,---,0.00,VWS V14.01,2013-01-10 13:08:00,
2013-01-10 08:14:00,47.7,32.3,30.46,NNW,333,0.0,2.0,55,0.00,,---,0.00,VWS V14.01,2013-01-10 13:14:00,
2013-01-10 08:20:00,47.9,32.5,30.46,North,350,2.0,5.0,55,0.00,,---,0.00,VWS V14.01,2013-01-10 13:20:00,
2013-01-10 08:26:00,48.0,32.6,30.47,North,351,0.0,3.0,55,0.00,,---,0.00,VWS V14.01,2013-01-10 13:26:00,
2013-01-10 08:32:00,48.0,32.2,30.47,NNW,343,2.0,3.0,54,0.00,,---,0.00,VWS V14.01,2013-01-10 13:32:00,
2013-01-10 08:38:00,48.0,32.6,30.46,North,354,0.0,3.0,55,0.00,,---,0.00,VWS V14.01,2013-01-10 13:38:00,
2013-01-10 08:44:00,48.0,32.6,30.46,North,355,0.0,3.0,55,0.00,,---,0.00,VWS V14.01,2013-01-10 13:44:00,
2013-01-10 08:50:00,48.0,33.1,30.46,North,355,0.0,3.0,56,0.00,,---,0.00,VWS V14.01,2013-01-10 13:50:00,
2013-01-10 08:56:00,48.2,34.1,30.47,North,354,0.0,2.0,58,0.00,,---,0.00,VWS V14.01,2013-01-10 13:56:00,
2013-01-10 09:02:00,48.0,38.0,30.47,North,355,0.0,2.0,68,0.00,,---,0.00,VWS V14.01,2013-01-10 14:02:00,
2013-01-10 09:08:00,47.7,36.5,30.47,North,355,0.0,2.0,65,0.00,,---,0.00,VWS V14.01,2013-01-10 14:08:00,
2013-01-10 09:15:00,47.4,36.6,30.47,North,355,0.0,0.0,66,0.00,,---,0.00,VWS V14.01,2013-01-10 14:15:00,
2013-01-10 09:21:00,47.4,35.0,30.47,North,355,0.0,0.0,62,0.00,,---,0.00,VWS V14.01,2013-01-10 14:21:00,
2013-01-10 09:27:00,47.6,36.8,30.48,North,355,0.0,0.0,66,0.00,,---,0.00,VWS V14.01,2013-01-10 14:27:00,
2013-01-10 09:33:00,47.7,36.9,30.48,North,355,0.0,0.0,66,0.00,,---,0.00,VWS V14.01,2013-01-10 14:33:00,
2013-01-10 09:38:00,48.0,34.4,30.48,North,355,2.0,2.0,59,0.00,,---,0.00,VWS V14.01,2013-01-10 14:38:00,
2013-01-10 09:45:00,49.1,35.4,30.48,North,355,0.0,2.0,59,0.00,,---,0.00,VWS V14.01,2013-01-10 14:45:00,
2013-01-10 09:51:00,49.8,34.8,30.48,North,355,0.0,2.0,56,0.00,,---,0.00,VWS V14.01,2013-01-10 14:51:00,
2013-01-10 09:57:00,50.5,34.0,30.49,North,355,0.0,0.0,53,0.00,,---,0.00,VWS V14.01,2013-01-10 14:57:00,
2013-01-10 10:03:00,51.1,35.0,30.49,North,355,0.0,1.0,54,0.00,,---,0.00,VWS V14.01,2013-01-10 15:03:00,
2013-01-10 10:08:00,51.4,35.3,30.49,North,355,0.0,1.0,54,0.00,,---,0.00,VWS V14.01,2013-01-10 15:08:00,
2013-01-10 10:15:00,52.0,34.9,30.49,North,354,0.0,2.0,52,0.00,,---,0.00,VWS V14.01,2013-01-10 15:15:00,
2013-01-10 10:21:00,52.5,35.9,30.49,North,354,0.0,2.0,53,0.00,,---,0.00,VWS V14.01,2013-01-10 15:21:00,
2013-01-10 10:27:00,52.9,35.8,30.49,North,354,0.0,2.0,52,0.00,,---,0.00,VWS V14.01,2013-01-10 15:27:00,
2013-01-10 10:33:00,53.3,35.7,30.49,NE,53,1.0,2.0,51,0.00,,---,0.00,VWS V14.01,2013-01-10 15:33:00,
2013-01-10 10:38:00,53.8,34.6,30.49,ENE,71,3.0,4.0,48,0.00,,---,0.00,VWS V14.01,2013-01-10 15:38:00,
2013-01-10 10:45:00,54.7,33.2,30.49,ENE,71,0.0,3.0,44,0.00,,---,0.00,VWS V14.01,2013-01-10 15:45:00,
2013-01-10 10:51:00,55.3,34.3,30.49,ENE,60,0.0,3.0,45,0.00,,---,0.00,VWS V14.01,2013-01-10 15:51:00,
2013-01-10 10:57:00,55.7,34.1,30.48,ENE,60,0.0,1.0,44,0.00,,---,0.00,VWS V14.01,2013-01-10 15:57:00,
2013-01-10 11:03:00,56.3,32.9,30.48,NE,42,0.0,4.0,41,0.00,,---,0.00,VWS V14.01,2013-01-10 16:03:00,
2013-01-10 11:08:00,56.3,33.5,30.48,NE,43,0.0,4.0,42,0.00,,---,0.00,VWS V14.01,2013-01-10 16:08:00,
2013-01-10 11:13:00,56.3,32.3,30.48,East,83,0.0,4.0,40,0.00,,---,0.00,VWS V14.01,2013-01-10 16:13:00,
2013-01-10 11:19:00,56.7,33.3,30.48,ENE,69,0.0,4.0,41,0.00,,---,0.00,VWS V14.01,2013-01-10 16:19:00,
2013-01-10 11:25:00,57.5,34.0,30.46,East,84,2.0,3.0,41,0.00,,---,0.00,VWS V14.01,2013-01-10 16:25:00,
2013-01-10 11:31:00,58.0,31.9,30.46,NNE,15,0.0,3.0,37,0.00,,---,0.00,VWS V14.01,2013-01-10 16:31:00,
2013-01-10 11:37:00,58.0,32.6,30.45,ENE,58,0.0,4.0,38,0.00,,---,0.00,VWS V14.01,2013-01-10 16:37:00,
2013-01-10 11:43:00,58.0,32.6,30.45,ENE,70,3.0,4.0,38,0.00,,---,0.00,VWS V14.01,2013-01-10 16:43:00,
2013-01-10 11:49:00,57.8,31.0,30.45,North,352,0.0,4.0,36,0.00,,---,0.00,VWS V14.01,2013-01-10 16:49:00,
2013-01-10 11:55:00,57.8,31.7,30.44,NNE,28,0.0,3.0,37,0.00,,---,0.00,VWS V14.01,2013-01-10 16:55:00,
2013-01-10 12:01:00,58.0,31.2,30.44,NE,56,0.0,3.0,36,0.00,,---,0.00,VWS V14.01,2013-01-10 17:01:00,
2013-01-10 12:07:00,58.1,29.9,30.44,NE,56,0.0,3.0,34,0.00,,---,0.00,VWS V14.01,2013-01-10 17:07:00,
2013-01-10 12:13:00,58.0,32.6,30.44,ENE,60,0.0,4.0,38,0.00,,---,0.00,VWS V14.01,2013-01-10 17:13:00,
2013-01-10 12:19:00,58.0,30.5,30.44,NNE,29,0.0,4.0,35,0.00,,---,0.00,VWS V14.01,2013-01-10 17:19:00,
2013-01-10 12:25:00,57.8,31.0,30.44,NNE,29,0.0,1.0,36,0.00,,---,0.00,VWS V14.01,2013-01-10 17:25:00,
2013-01-10 12:31:00,57.6,29.5,30.44,North,349,2.0,2.0,34,0.00,,---,0.00,VWS V14.01,2013-01-10 17:31:00,
2013-01-10 12:37:00,57.5,30.1,30.43,North,359,0.0,3.0,35,0.00,,---,0.00,VWS V14.01,2013-01-10 17:37:00,
2013-01-10 12:43:00,57.3,31.3,30.43,North,359,0.0,1.0,37,0.00,,---,0.00,VWS V14.01,2013-01-10 17:43:00,
2013-01-10 12:49:00,57.5,30.8,30.43,NE,47,0.0,2.0,36,0.00,,---,0.00,VWS V14.01,2013-01-10 17:49:00,
2013-01-10 12:55:00,57.6,32.2,30.42,ENE,58,0.0,3.0,38,0.00,,---,0.00,VWS V14.01,2013-01-10 17:55:00,
2013-01-10 13:01:00,57.6,32.2,30.42,NE,38,2.0,4.0,38,0.00,,---,0.00,VWS V14.01,2013-01-10 18:01:00,
2013-01-10 13:07:00,57.6,32.2,30.42,NE,39,0.0,4.0,38,0.00,,---,0.00,VWS V14.01,2013-01-10 18:07:00,
2013-01-10 13:13:00,57.8,31.0,30.42,NE,43,0.0,2.0,36,0.00,,---,0.00,VWS V14.01,2013-01-10 18:13:00,
2013-01-10 13:19:00,58.0,29.8,30.42,ENE,58,4.0,4.0,34,0.00,,---,0.00,VWS V14.01,2013-01-10 18:19:00,
2013-01-10 13:26:00,58.3,29.3,30.41,ENE,75,0.0,4.0,33,0.00,,---,0.00,VWS V14.01,2013-01-10 18:26:00,
2013-01-10 13:32:00,58.3,27.8,30.41,ENE,75,0.0,4.0,31,0.00,,---,0.00,VWS V14.01,2013-01-10 18:32:00,
2013-01-10 13:38:00,58.4,28.7,30.41,ENE,72,0.0,4.0,32,0.00,,---,0.00,VWS V14.01,2013-01-10 18:38:00,
2013-01-10 13:44:00,58.4,28.7,30.41,ENE,68,0.0,4.0,32,0.00,,---,0.00,VWS V14.01,2013-01-10 18:44:00,
2013-01-10 13:50:00,58.6,30.3,30.41,ENE,68,0.0,4.0,34,0.00,,---,0.00,VWS V14.01,2013-01-10 18:50:00,
2013-01-10 13:56:00,58.7,29.7,30.41,ENE,68,0.0,1.0,33,0.00,,---,0.00,VWS V14.01,2013-01-10 18:56:00,
2013-01-10 14:02:00,58.9,27.5,30.41,ENE,68,0.0,3.0,30,0.00,,---,0.00,VWS V14.01,2013-01-10 19:02:00,
2013-01-10 14:08:00,59.0,28.4,30.41,ENE,68,3.0,3.0,31,0.00,,---,0.00,VWS V14.01,2013-01-10 19:08:00,
2013-01-10 14:14:00,59.0,29.2,30.41,ENE,68,0.0,1.0,32,0.00,,---,0.00,VWS V14.01,2013-01-10 19:14:00,
2013-01-10 14:20:00,59.0,27.6,30.41,ENE,68,0.0,1.0,30,0.00,,---,0.00,VWS V14.01,2013-01-10 19:20:00,
2013-01-10 14:26:00,59.2,27.0,30.41,ENE,78,0.0,2.0,29,0.00,,---,0.00,VWS V14.01,2013-01-10 19:26:00,
2013-01-10 14:32:00,59.0,28.4,30.41,ENE,78,0.0,2.0,31,0.00,,---,0.00,VWS V14.01,2013-01-10 19:32:00,
2013-01-10 14:38:00,59.2,28.6,30.41,ENE,77,0.0,3.0,31,0.00,,---,0.00,VWS V14.01,2013-01-10 19:38:00,
2013-01-10 14:44:00,59.2,28.6,30.41,ENE,78,0.0,2.0,31,0.00,,---,0.00,VWS V14.01,2013-01-10 19:44:00,
2013-01-10 14:50:00,59.3,29.5,30.41,ENE,78,0.0,2.0,32,0.00,,---,0.00,VWS V14.01,2013-01-10 19:50:00,
2013-01-10 14:56:00,59.3,31.7,30.40,ENE,78,0.0,0.0,35,0.00,,---,0.00,VWS V14.01,2013-01-10 19:56:00,
2013-01-10 15:02:00,59.5,29.6,30.40,ENE,78,0.0,0.0,32,0.00,,---,0.00,VWS V14.01,2013-01-10 20:02:00,
2013-01-10 15:08:00,59.6,29.7,30.40,ENE,78,0.0,1.0,32,0.00,,---,0.00,VWS V14.01,2013-01-10 20:08:00,
2013-01-10 15:14:00,59.6,30.5,30.40,ENE,78,0.0,1.0,33,0.00,,---,0.00,VWS V14.01,2013-01-10 20:14:00,
2013-01-10 15:20:00,59.6,27.3,30.40,ENE,78,0.0,1.0,29,0.00,,---,0.00,VWS V14.01,2013-01-10 20:20:00,
2013-01-10 15:26:00,59.9,30.8,30.40,ENE,78,2.0,3.0,33,0.00,,---,0.00,VWS V14.01,2013-01-10 20:26:00,
2013-01-10 15:32:00,60.2,31.0,30.40,ENE,78,1.0,3.0,33,0.00,,---,0.00,VWS V14.01,2013-01-10 20:32:00,
2013-01-10 15:38:00,60.5,29.7,30.40,ENE,78,0.0,3.0,31,0.00,,---,0.00,VWS V14.01,2013-01-10 20:38:00,
2013-01-10 15:44:00,60.4,31.9,30.40,ENE,78,0.0,1.0,34,0.00,,---,0.00,VWS V14.01,2013-01-10 20:44:00,
2013-01-10 15:50:00,59.9,30.8,30.40,ENE,78,0.0,2.0,33,0.00,,---,0.00,VWS V14.01,2013-01-10 20:50:00,
2013-01-10 15:56:00,59.6,29.7,30.40,ENE,78,0.0,0.0,32,0.00,,---,0.00,VWS V14.01,2013-01-10 20:56:00,
2013-01-10 16:02:00,59.3,31.0,30.40,ENE,78,0.0,0.0,34,0.00,,---,0.00,VWS V14.01,2013-01-10 21:02:00,
2013-01-10 16:08:00,59.2,30.9,30.39,ENE,78,0.0,0.0,34,0.00,,---,0.00,VWS V14.01,2013-01-10 21:08:00,
2013-01-10 16:14:00,59.2,30.1,30.39,ENE,78,0.0,0.0,33,0.00,,---,0.00,VWS V14.01,2013-01-10 21:14:00,
2013-01-10 16:20:00,59.3,30.2,30.39,ENE,78,0.0,0.0,33,0.00,,---,0.00,VWS V14.01,2013-01-10 21:20:00,
2013-01-10 16:26:00,59.3,31.0,30.40,ENE,78,0.0,0.0,34,0.00,,---,0.00,VWS V14.01,2013-01-10 21:26:00,
2013-01-10 16:32:00,59.5,31.1,30.40,ENE,78,0.0,2.0,34,0.00,,---,0.00,VWS V14.01,2013-01-10 21:32:00,
2013-01-10 16:38:00,59.3,30.2,30.39,ENE,78,0.0,2.0,33,0.00,,---,0.00,VWS V14.01,2013-01-10 21:38:00,
2013-01-10 16:45:00,59.0,30.7,30.39,ENE,78,0.0,0.0,34,0.00,,---,0.00,VWS V14.01,2013-01-10 21:45:00,
2013-01-10 16:51:00,58.6,31.0,30.39,ENE,78,0.0,0.0,35,0.00,,---,0.00,VWS V14.01,2013-01-10 21:51:00,
2013-01-10 16:57:00,58.1,30.6,30.40,ENE,78,0.0,0.0,35,0.00,,---,0.00,VWS V14.01,2013-01-10 21:57:00,
2013-01-10 17:03:00,57.5,30.8,30.40,ENE,78,0.0,0.0,36,0.00,,---,0.00,VWS V14.01,2013-01-10 22:03:00,
2013-01-10 17:08:00,57.0,30.3,30.40,ENE,78,0.0,0.0,36,0.00,,---,0.00,VWS V14.01,2013-01-10 22:08:00,
2013-01-10 17:15:00,56.6,30.6,30.40,ENE,78,0.0,0.0,37,0.00,,---,0.00,VWS V14.01,2013-01-10 22:15:00,
2013-01-10 17:21:00,56.0,30.8,30.40,ENE,78,0.0,0.0,38,0.00,,---,0.00,VWS V14.01,2013-01-10 22:21:00,
2013-01-10 17:27:00,55.6,30.4,30.41,ENE,78,0.0,0.0,38,0.00,,---,0.00,VWS V14.01,2013-01-10 22:27:00,
2013-01-10 17:33:00,55.1,30.6,30.41,ENE,78,0.0,0.0,39,0.00,,---,0.00,VWS V14.01,2013-01-10 22:33:00,
2013-01-10 17:38:00,54.8,31.0,30.42,ENE,78,0.0,0.0,40,0.00,,---,0.00,VWS V14.01,2013-01-10 22:38:00,
2013-01-10 17:45:00,54.5,31.3,30.42,ENE,78,0.0,0.0,41,0.00,,---,0.00,VWS V14.01,2013-01-10 22:45:00,
2013-01-10 17:51:00,54.1,31.5,30.42,ENE,78,0.0,0.0,42,0.00,,---,0.00,VWS V14.01,2013-01-10 22:51:00,
2013-01-10 17:57:00,53.8,31.3,30.42,ENE,78,0.0,0.0,42,0.00,,---,0.00,VWS V14.01,2013-01-10 22:57:00,
2013-01-10 18:03:00,53.5,32.1,30.42,ENE,78,0.0,0.0,44,0.00,,---,0.00,VWS V14.01,2013-01-10 23:03:00,
2013-01-10 18:08:00,53.1,31.8,30.42,ENE,78,0.0,0.0,44,0.00,,---,0.00,VWS V14.01,2013-01-10 23:08:00,
2013-01-10 18:15:00,52.8,32.1,30.42,ENE,78,0.0,0.0,45,0.00,,---,0.00,VWS V14.01,2013-01-10 23:15:00,
2013-01-10 18:21:00,52.5,32.3,30.42,ENE,78,0.0,0.0,46,0.00,,---,0.00,VWS V14.01,2013-01-10 23:21:00,
2013-01-10 18:27:00,52.0,32.4,30.42,ENE,78,0.0,0.0,47,0.00,,---,0.00,VWS V14.01,2013-01-10 23:27:00,
2013-01-10 18:33:00,51.7,32.1,30.42,ENE,78,0.0,0.0,47,0.00,,---,0.00,VWS V14.01,2013-01-10 23:33:00,
2013-01-10 18:38:00,51.3,31.8,30.42,ENE,78,0.0,0.0,47,0.00,,---,0.00,VWS V14.01,2013-01-10 23:38:00,
2013-01-10 18:43:00,51.0,32.0,30.42,ENE,78,0.0,0.0,48,0.00,,---,0.00,VWS V14.01,2013-01-10 23:43:00,
2013-01-10 18:49:00,50.7,31.7,30.42,ENE,78,0.0,0.0,48,0.00,,---,0.00,VWS V14.01,2013-01-10 23:49:00,
2013-01-10 18:55:00,50.4,32.5,30.42,ENE,78,0.0,0.0,50,0.00,,---,0.00,VWS V14.01,2013-01-10 23:55:00,
2013-01-10 19:01:00,50.1,32.7,30.42,ENE,78,0.0,0.0,51,0.00,,---,0.00,VWS V14.01,2013-01-11 00:01:00,
2013-01-10 19:07:00,49.8,32.4,30.41,ENE,78,0.0,0.0,51,0.00,,---,0.00,VWS V14.01,2013-01-11 00:07:00,
2013-01-10 19:13:00,49.5,32.6,30.41,ENE,78,0.0,0.0,52,0.00,,---,0.00,VWS V14.01,2013-01-11 00:13:00,
2013-01-10 19:19:00,49.1,32.7,30.41,ENE,78,0.0,0.0,53,0.00,,---,0.00,VWS V14.01,2013-01-11 00:19:00,
2013-01-10 19:25:00,48.8,32.4,30.42,ENE,78,0.0,0.0,53,0.00,,---,0.00,VWS V14.01,2013-01-11 00:25:00,
2013-01-10 19:32:00,48.5,32.6,30.42,ENE,78,0.0,0.0,54,0.00,,---,0.00,VWS V14.01,2013-01-11 00:32:00,
2013-01-10 19:38:00,48.0,32.2,30.42,ENE,78,0.0,0.0,54,0.00,,---,0.00,VWS V14.01,2013-01-11 00:38:00,
2013-01-10 19:44:00,47.9,32.1,30.42,ENE,78,0.0,0.0,54,0.00,,---,0.00,VWS V14.01,2013-01-11 00:44:00,
2013-01-10 19:50:00,47.6,32.7,30.42,ENE,78,0.0,0.0,56,0.00,,---,0.00,VWS V14.01,2013-01-11 00:50:00,
2013-01-10 19:56:00,47.3,32.4,30.41,ENE,78,0.0,0.0,56,0.00,,---,0.00,VWS V14.01,2013-01-11 00:56:00,
2013-01-10 20:02:00,47.1,32.7,30.41,ENE,78,0.0,0.0,57,0.00,,---,0.00,VWS V14.01,2013-01-11 01:02:00,
2013-01-10 20:08:00,46.8,32.8,30.41,ENE,78,0.0,0.0,58,0.00,,---,0.00,VWS V14.01,2013-01-11 01:08:00,
2013-01-10 20:14:00,46.4,32.9,30.41,ENE,78,0.0,0.0,59,0.00,,---,0.00,VWS V14.01,2013-01-11 01:14:00,
2013-01-10 20:20:00,46.2,33.1,30.41,ENE,78,0.0,0.0,60,0.00,,---,0.00,VWS V14.01,2013-01-11 01:20:00,
2013-01-10 20:26:00,46.1,33.0,30.41,ENE,78,0.0,0.0,60,0.00,,---,0.00,VWS V14.01,2013-01-11 01:26:00,
2013-01-10 20:32:00,46.0,32.9,30.41,ENE,78,0.0,0.0,60,0.00,,---,0.00,VWS V14.01,2013-01-11 01:32:00,
2013-01-10 20:38:00,45.8,32.7,30.41,ENE,78,0.0,0.0,60,0.00,,---,0.00,VWS V14.01,2013-01-11 01:38:00,
2013-01-10 20:44:00,45.7,33.0,30.41,ENE,78,0.0,0.0,61,0.00,,---,0.00,VWS V14.01,2013-01-11 01:44:00,
2013-01-10 20:50:00,45.4,33.2,30.41,ENE,78,0.0,0.0,62,0.00,,---,0.00,VWS V14.01,2013-01-11 01:50:00,
2013-01-10 20:56:00,45.1,33.3,30.41,ENE,78,0.0,0.0,63,0.00,,---,0.00,VWS V14.01,2013-01-11 01:56:00,
2013-01-10 21:02:00,44.6,32.8,30.41,ENE,78,0.0,0.0,63,0.00,,---,0.00,VWS V14.01,2013-01-11 02:02:00,
2013-01-10 21:08:00,44.6,32.8,30.41,ENE,78,0.0,0.0,63,0.00,,---,0.00,VWS V14.01,2013-01-11 02:08:00,
2013-01-10 21:14:00,44.5,33.1,30.41,ENE,78,0.0,0.0,64,0.00,,---,0.00,VWS V14.01,2013-01-11 02:14:00,
2013-01-10 21:20:00,44.2,32.8,30.41,ENE,78,0.0,0.0,64,0.00,,---,0.00,VWS V14.01,2013-01-11 02:20:00,
2013-01-10 21:26:00,44.1,33.1,30.41,ENE,78,0.0,0.0,65,0.00,,---,0.00,VWS V14.01,2013-01-11 02:26:00,
2013-01-10 21:32:00,43.9,32.9,30.41,ENE,78,0.0,0.0,65,0.00,,---,0.00,VWS V14.01,2013-01-11 02:32:00,
2013-01-10 21:38:00,43.8,33.2,30.41,ENE,78,0.0,0.0,66,0.00,,---,0.00,VWS V14.01,2013-01-11 02:38:00,
2013-01-10 21:44:00,43.8,33.2,30.41,ENE,78,0.0,0.0,66,0.00,,---,0.00,VWS V14.01,2013-01-11 02:44:00,
2013-01-10 21:50:00,43.6,33.0,30.41,ENE,78,0.0,0.0,66,0.00,,---,0.00,VWS V14.01,2013-01-11 02:50:00,
2013-01-10 21:56:00,43.3,33.5,30.41,ENE,78,0.0,0.0,68,0.00,,---,0.00,VWS V14.01,2013-01-11 02:56:00,
2013-01-10 22:02:00,42.9,33.4,30.41,ENE,78,0.0,0.0,69,0.00,,---,0.00,VWS V14.01,2013-01-11 03:02:00,
2013-01-10 22:08:00,42.8,33.3,30.41,ENE,78,0.0,0.0,69,0.00,,---,0.00,VWS V14.01,2013-01-11 03:08:00,
2013-01-10 22:15:00,42.6,33.2,30.41,ENE,78,0.0,0.0,69,0.00,,---,0.00,VWS V14.01,2013-01-11 03:15:00,
2013-01-10 22:21:00,42.5,33.1,30.41,ENE,78,0.0,0.0,69,0.00,,---,0.00,VWS V14.01,2013-01-11 03:21:00,
2013-01-10 22:27:00,42.5,33.4,30.40,ENE,78,0.0,0.0,70,0.00,,---,0.00,VWS V14.01,2013-01-11 03:27:00,
2013-01-10 22:33:00,42.3,33.2,30.40,ENE,78,0.0,0.0,70,0.00,,---,0.00,VWS V14.01,2013-01-11 03:33:00,
2013-01-10 22:38:00,42.3,33.6,30.40,ENE,78,0.0,0.0,71,0.00,,---,0.00,VWS V14.01,2013-01-11 03:38:00,
2013-01-10 22:45:00,42.2,33.5,30.40,ENE,78,0.0,0.0,71,0.00,,---,0.00,VWS V14.01,2013-01-11 03:45:00,
2013-01-10 22:51:00,41.9,33.5,30.40,ENE,78,0.0,0.0,72,0.00,,---,0.00,VWS V14.01,2013-01-11 03:51:00,
2013-01-10 22:57:00,41.6,33.6,30.39,ENE,78,0.0,0.0,73,0.00,,---,0.00,VWS V14.01,2013-01-11 03:57:00,
2013-01-10 23:03:00,41.3,33.3,30.39,ENE,78,0.0,2.0,73,0.00,,---,0.00,VWS V14.01,2013-01-11 04:03:00,
2013-01-10 23:08:00,41.3,33.3,30.40,ENE,78,0.0,2.0,73,0.00,,---,0.00,VWS V14.01,2013-01-11 04:08:00,
2013-01-10 23:13:00,41.3,33.3,30.40,ENE,78,0.0,0.0,73,0.00,,---,0.00,VWS V14.01,2013-01-11 04:13:00,
2013-01-10 23:19:00,41.3,33.3,30.40,ENE,78,0.0,0.0,73,0.00,,---,0.00,VWS V14.01,2013-01-11 04:19:00,
2013-01-10 23:25:00,41.3,33.3,30.39,ENE,78,0.0,0.0,73,0.00,,---,0.00,VWS V14.01,2013-01-11 04:25:00,
2013-01-10 23:31:00,41.3,33.7,30.39,ENE,78,0.0,0.0,74,0.00,,---,0.00,VWS V14.01,2013-01-11 04:31:00,
2013-01-10 23:37:00,41.2,33.5,30.39,ENE,78,0.0,0.0,74,0.00,,---,0.00,VWS V14.01,2013-01-11 04:37:00,
2013-01-10 23:43:00,41.2,33.5,30.37,ENE,78,0.0,0.0,74,0.00,,---,0.00,VWS V14.01,2013-01-11 04:43:00,
2013-01-10 23:49:00,41.2,33.5,30.37,ENE,78,0.0,0.0,74,0.00,,---,0.00,VWS V14.01,2013-01-11 04:49:00,
2013-01-10 23:55:00,41.2,33.5,30.37,ENE,78,0.0,0.0,74,0.00,,---,0.00,VWS V14.01,2013-01-11 04:55:00,